BGUSAT (41999 NORAD) Tracking and Keplerian Element Data

This shows tracking and keplerian element data for the satellite.

Feedback or suggestion? Click here.




ElementValue
Catalog41999
NameBGUSAT
Epoch Orbit12581
Epoch Day146.85832269
Epoch Year2019
RAAN214.469
Inclination97.4081
Eccentricity0.000675
Argument of Perigee231.5578
Mean Anonmoly128.5056
Mean Motion15.26018726
Decay Rate1.238E-05
L11 41999U 17008BD 19146.85832269 .00001238 00000-0 50933-4 0 9990
L22 41999 97.4081 214.4690 0006750 231.5578 128.5056 15.26018726125810

Live tracking and technical data element details for BGUSAT (NORAD 41999). BGUSAT can be tracked NOW for your location showing map with azimuth and elevation plus other details from your city location.

Track the satellite on the map from your city or location and see movement details for azimuth, elevation, latitude, longitude, range, height, and movement on the map or in text.







IsCatalogInMostPopularTable: catalog: 41999, numindb: 171
Update: records affected: 1



GetName: 41999 BGUSAT

Hit Count: updated at: Mon, 27 May 2019 04:15:30 GMT